Skip Page Navigation
NASA JPL Caltech
NASA Logo - Jet Propulsion Laboratory + View the NASA Portal
+ Center for Near-Earth Object Studies
JPL Home Earth Solar System Stars & Galaxies Technology
JPL Solar System Dynamics
BODIES ORBITS EPHEMERIDES TOOLS PHYSICAL DATA DISCOVERY FAQ SITE MAP
JPL Small-Body Database Browser
Search: [ help ]  
3544 Borodino (1977 RD4)
Classification: Main-belt Asteroid          SPK-ID: 2003544
Ephemeris | Orbit Diagram | Orbital Elements | Mission Design | Physical Parameters | Discovery Circumstances ]

[ show orbit diagram ]
Orbital Elements at Epoch 2459200.5 (2020-Dec-17.0) TDB
Reference: JPL 46 (heliocentric ecliptic J2000)
 Element Value Uncertainty (1-sigma)   Units 
e .2205563303596747 2.0545e-08  
a 2.401146334050381 6.7481e-09 au
q 1.871558309955643 4.9049e-08 au
i 8.903303126811535 3.6062e-07 deg
node 147.5906318268706 4.7518e-06 deg
peri 148.9902753382503 5.4171e-06 deg
M 248.716586348045 5.0792e-06 deg
tp 2459620.601573093413
(2022-Feb-10.10157309)
2.0298e-05 TDB
period 1359.021630902064
3.72
5.7291e-06
1.569e-08
d
yr
n .2648964459535838 1.1167e-09 deg/d
Q 2.930734358145119 8.2365e-09 au
  Orbit Determination Parameters
   # obs. used (total)      2808  
   data-arc span      28477 days (77.97 yr)  
   first obs. used      1943-04-06  
   last obs. used      2021-03-24  
   planetary ephem.      DE441  
   SB-pert. ephem.      SB441-N16  
   condition code      0  
   norm. resid. RMS      .42526  
   source      ORB  
   producer      Otto Matic  
   solution date      2021-May-03 21:03:05  

Additional Information
 Earth MOID = .860312 au 
 Jupiter MOID = 2.32469 au 
 T_jup = 3.476 
[ hide covariance matrix ]
Orbital Elements at Epoch 2457102.5 (2015-Mar-21.0) TDB
Reference: JPL 46 (heliocentric ecliptic J2000)
 Element Value Uncertainty (1-sigma)   Units 
e .2213170037358189 2.0491e-08  
q 1.869345214968732 4.8945e-08 au
tp 2456902.757307909694
(2014-Sep-02.25730791)
1.533e-05 TDB
node 147.6388289827983 4.7495e-06 deg
peri 148.9763247283675 5.4076e-06 deg
i 8.906385464241657 3.607e-07 deg
  Orbit Determination Parameters
   # obs. used (total)      2808  
   data-arc span      28477 days (77.97 yr)  
   first obs. used      1943-04-06  
   last obs. used      2021-03-24  
   planetary ephem.      DE441  
   SB-pert. ephem.      SB441-N16  
   condition code      0  
   norm. resid. RMS      .42526  
   source      ORB  
   producer      Otto Matic  
   solution date      2021-May-03 21:03:05  

Additional Information
 Jupiter MOID = 2.32469 au 
 T_jup = 3.476 
Orbit Covariance (6×6)
  e q tp node peri i
e 4.19895020429615E-16 -9.97293509577948E-16 -2.80376654211772E-14 -3.468673652371471E-15 -2.96702026044513E-14 1.167933212804964E-15
q -9.97293509577948E-16 2.395639335364819E-15 7.772764472760289E-14 8.759556414370174E-15 7.404747762221604E-14 -2.806626348177804E-15
tp -2.80376654211772E-14 7.772764472760289E-14 2.349942759827949E-10 1.627162100213169E-11 3.353340323149669E-11 -1.441588360761022E-12
node -3.468673652371471E-15 8.759556414370174E-15 1.627162100213169E-11 2.255776199260612E-11 -1.953001001203749E-11 -1.30238101111332E-12
peri -2.96702026044513E-14 7.404747762221604E-14 3.353340323149669E-11 -1.953001001203749E-11 2.924174065305138E-11 9.40620607821603E-13
i 1.167933212804964E-15 -2.806626348177804E-15 -1.441588360761022E-12 -1.30238101111332E-12 9.40620607821603E-13 1.30106624473527E-13

Ephemeris | Orbit Diagram | Orbital Elements | Mission Design | Physical Parameters | Discovery Circumstances ]

Physical Parameter Table
Parameter Symbol Value Units Sigma Reference Notes
absolute magnitude H 12.54   n/a MPCxxxxx  
diameter diameter 8.502 km 0.075 urn:nasa:pds:neowise_diameters_albedos::2.0[mainbelt] (http://adsabs.harvard.edu/abs/2014ApJ...791..121M)  
rotation period rot_per 5.442 h n/a LCDB (Rev. 2020-October); Warner et al., 2009 Published Reference List:
[Torno, S.; Oliver, R.L.; Ditteon, R. (2008) Minor Planet Bull. 35, 54-55.]
[Higgins, D.J. (2011) http://www.david-higgins.com/Astronomy/asteroid/lightcurves.htm]
[Cantu, S.; Adolphson, M.; Montgomery, K.; Renshaw, T. (2015) Minor Planet Bull. 42, 28-29.]
[Durech, J.; Hanus, J.; Oszkiewsicz, D.; Vanco, R. (2016) Astron. Astrophys. 587, A48.]
[Hanus, J.; Durech, J.; Oszkiewicz, D.A.; Behrend, R.; et al. (2016) Astron. Astrophys. 586, A108.]
geometric albedo albedo 0.247   0.027 urn:nasa:pds:neowise_diameters_albedos::2.0[mainbelt] (http://adsabs.harvard.edu/abs/2014ApJ...791..121M)  

3544 Borodino (1977 RD4)          Discovered 1977-Sep-07 by Chernykh, N. at Nauchnyj
Reference: DISCOVERY.DBLast Updated: 2003-08-29

Alternate Designations
 1977 RD4 = 1936 QJ1 = 1943 GM = 1947 LO = 1951 RW1 = 1951 SJ = 1980 FM11 = 1981 RN5 
Ephemeris | Orbit Diagram | Orbital Elements | Mission Design | Physical Parameters | Discovery Circumstances ]
ABOUT SSD CREDITS/AWARDS PRIVACY/COPYRIGHT GLOSSARY LINKS
FirstGov 2021-May-17 00:24 UT
(server date/time)  
NASA Home Page
Site Manager:   Ryan S. Park
Webmaster  Alan B. Chamberlin